Home   Weather   Fairbanks   Past weeks

Flag for USA Past Weather in Fairbanks, Alaska, USA — Yesterday and Last 2 Weeks

Now
-16 °F

Overcast.


Feels Like: -16 °F
Forecast: -26 / -14 °F
Wind: No wind

Location: Wainwright U. S. Army Airfield

Current Time: Jan 21, 2017 at 1:05:43 pm

Latest Report: Jan 21, 2017 at 11:58 am


Visibility: 10 mi

Pressure: 29.99 "Hg

Humidity: 73%

Dew Point: -22 °F

Location of FairbanksLocation

Past Weather in Fairbanks — Graph

°F

Fairbanks Temperature Yesterday

Maximum temperature yesterday: 0 °F (at 10:30 pm)
Minimum temperature yesterday: -28 °F (at 12:58 am)
Average temperature yesterday: -12 °F

High & Low Weather Summary for the Past Weeks

 TemperatureHumidityPressure
High12 °F (Jan 14, 7:58 am)92% (Jan 14, 2:32 am)30.99 "Hg (Jan 14, 2:32 am)
Low-51 °F (Jan 18, 9:58 am)56% (Jan 18, 1:18 am)28.05 "Hg (Jan 6, 8:58 pm)
Average-19 °F75%29.68 "Hg
* Reported Jan 6 10:58 am — Jan 21 10:58 am, Fairbanks, Weather by CustomWeather, © 2017

Note: Actual official high and low records may vary slightly from our data, if they occured in-between our weather recording intervals... More about our weather records

Advertising

Fairbanks Weather History for the Previous 24 Hours

Scroll right to see more
 ConditionsComfort  
Time TempWeatherWind HumidityBarometerVisibility
10:58 am
Sat, Jan 21
-16 °FOvercast.No wind74%29.97 "Hg10 mi
9:58 am-15 °FOvercast.No wind73%29.96 "Hg10 mi
8:58 am-14 °FOvercast.No wind74%29.94 "Hg10 mi
8:08 am-15 °FMostly cloudy.No wind76%29.87 "Hg10 mi
8:03 am-15 °FMostly cloudy.No wind76%29.87 "Hg10 mi
7:20 am-15 °FMostly cloudy.No wind76%29.86 "Hg5 mi
7:06 am-15 °FLight snow. Mostly cloudy.3 mph76%29.85 "Hg5 mi
6:37 am-13 °FLight snow. Low clouds.No wind69%29.84 "Hg6 mi
5:58 am-13 °FMostly cloudy.3 mph76%29.88 "Hg1 mi
5:40 am-13 °FLight snow. Mostly cloudy.5 mph76%29.83 "Hg2 mi
5:20 am-13 °FLight snow. Low clouds.3 mph76%29.82 "Hg2 mi
5:05 am-13 °FLight snow. Low clouds.3 mph76%29.82 "Hg4 mi
4:58 am-12 °FLow clouds.5 mph76%29.87 "Hg4 mi
4:40 am-13 °FLow clouds.3 mph76%29.79 "Hg4 mi
4:35 am-11 °FLight snow. Low clouds.6 mph70%29.80 "Hg3 mi
4:13 am-11 °FMostly cloudy.7 mph76%29.79 "Hg2 mi
3:58 am-11 °FMostly cloudy.7 mph76%29.84 "Hg3 mi
3:38 am-11 °FLight snow. Mostly cloudy.6 mph76%29.78 "Hg2 mi
3:23 am-9 °FLight snow. Mostly cloudy.5 mph77%29.77 "Hg2 mi
2:58 am-9 °FLight snow. Mostly cloudy.6 mph77%29.83 "Hg3 mi
2:33 am-9 °FLight snow. Low clouds.7 mph77%29.75 "Hg2 mi
1:58 am-8 °FLight snow. Mostly cloudy.9 mph77%29.78 "Hg4 mi
1:41 am-8 °FLight snow. Overcast.9 mph77%29.71 "Hg7 mi
1:34 am-8 °FLow clouds.9 mph84%29.70 "Hg5 mi
1:23 am-6 °FLight snow. Mostly cloudy.6 mph77%29.70 "Hg4 mi
1:08 am-6 °FLight snow. Mostly cloudy.6 mph77%29.69 "Hg5 mi
12:43 am-4 °FLow clouds.7 mph77%29.67 "Hg10 mi
12:13 am-4 °FMostly cloudy.No wind84%29.66 "Hg6 mi
11:58 pm
Fri, Jan 20
-4 °FMostly cloudy.3 mph80%29.71 "Hg6 mi
11:37 pm-2 °FLight snow. Overcast.3 mph77%29.64 "Hg2 mi
11:00 pm-2 °FLight snow. Overcast.No wind84%29.63 "Hg3 mi
10:58 pm-1 °FLight snow. Overcast.No wind80%29.69 "Hg2 mi
10:30 pm0 °FLight snow. Overcast.No wind78%29.61 "Hg2 mi
9:58 pm-1 °FLight snow. Overcast.No wind82%29.65 "Hg3 mi
9:43 pm-2 °FLight snow. Overcast.3 mph84%29.59 "Hg2 mi
9:38 pm-2 °FLight snow. Overcast.3 mph84%29.59 "Hg2 mi
9:23 pm-2 °FLight snow. Overcast.6 mph84%29.59 "Hg2 mi
9:03 pm-2 °FLight snow. Overcast.No wind77%29.58 "Hg4 mi
8:58 pm-1 °FLight snow. Overcast.No wind76%29.63 "Hg5 mi
7:58 pm-7 °FOvercast.No wind78%29.62 "Hg10 mi
6:58 pm-10 °FOvercast.No wind76%29.60 "Hg10 mi
5:58 pm-14 °FMostly cloudy.No wind78%29.57 "Hg10 mi
4:58 pm-14 °FClear.No wind78%29.56 "Hg10 mi
3:58 pm-13 °FPassing clouds.No wind75%29.58 "Hg10 mi
2:58 pm-15 °FPartly sunny.No wind76%29.58 "Hg10 mi
1:58 pm-17 °FOvercast.No wind76%29.59 "Hg10 mi
Weather by CustomWeather, © 2017

See weather overviewHow to use our weather pages